| time (UTC) | temp F | wind direction | speed MPH | gust MPH | rain 1hr in | rain 24hr in | rain mn in | humidity % | barometer mb |
| 20260503220057 | 69 | 261 | 12.0 | 16.0 | 0.00 | 0.00 | 0.00 | 33 | 1005.2 |
| 20260503214545 | 70 | 248 | 11.0 | 19.0 | 0.00 | 0.00 | 0.00 | 31 | 1005.4 |
| 20260503213043 | 70 | 280 | 10.0 | 21.0 | 0.00 | 0.00 | 0.00 | 36 | 1005.5 |
| 20260503211542 | 69 | 253 | 13.0 | 21.0 | 0.00 | 0.00 | 0.00 | 32 | 1005.5 |
| 20260503210050 | 70 | 259 | 12.0 | 22.0 | 0.00 | 0.00 | 0.00 | 35 | 1005.6 |
| 20260503204555 | 70 | 272 | 12.0 | 21.0 | 0.00 | 0.00 | 0.00 | 35 | 1005.7 |
| 20260503203038 | 70 | 255 | 12.0 | 21.0 | 0.00 | 0.00 | 0.00 | 34 | 1005.8 |
| 20260503201538 | 69 | 255 | 12.0 | 22.0 | 0.00 | 0.00 | 0.00 | 37 | 1005.9 |
| 20260503200043 | 69 | 265 | 12.0 | 21.0 | 0.00 | 0.00 | 0.00 | 35 | 1005.9 |
| 20260503194534 | 69 | 284 | 11.0 | 21.0 | 0.00 | 0.00 | 0.00 | 38 | 1006.0 |
| 20260503193034 | 70 | 269 | 16.0 | 24.0 | 0.00 | 0.00 | 0.00 | 35 | 1005.9 |
| 20260503191530 | 69 | 280 | 14.0 | 21.0 | 0.00 | 0.00 | 0.00 | 34 | 1006.0 |
| 20260503190042 | 69 | 280 | 16.0 | 23.0 | 0.00 | 0.00 | 0.00 | 35 | 1006.2 |
| 20260503184529 | 68 | 271 | 18.0 | 23.0 | 0.00 | 0.00 | 0.00 | 36 | 1006.1 |
| 20260503183025 | 68 | 284 | 10.0 | 22.0 | 0.00 | 0.00 | 0.00 | 39 | 1006.3 |
| 20260503181521 | 67 | 252 | 13.0 | 25.0 | 0.00 | 0.00 | 0.00 | 40 | 1006.4 |
| 20260503180021 | 68 | 264 | 16.0 | 22.0 | 0.00 | 0.00 | 0.00 | 41 | 1006.4 |
| 20260503174518 | 67 | 284 | 15.0 | 28.0 | 0.00 | 0.00 | 0.00 | 41 | 1006.6 |
| 20260503173016 | 67 | 284 | 14.0 | 20.0 | 0.00 | 0.00 | 0.00 | 42 | 1006.6 |
| 20260503171513 | 66 | 306 | 17.0 | 24.0 | 0.00 | 0.00 | 0.00 | 43 | 1006.5 |
| 20260503110119 | 47 | 13 | 0.0 | 0.0 | 0.00 | 0.00 | 0.00 | 65 | 1006.5 |
| 20260503090104 | 52 | 5 | 2.0 | 5.0 | 0.00 | 0.00 | 0.00 | 51 | 1008.7 |
| 20260503081559 | 52 | 199 | 0.0 | 3.0 | 0.00 | 0.00 | 0.00 | 51 | 1008.4 |
| 20260503071545 | 52 | 240 | 0.0 | 4.0 | 0.00 | 0.00 | 0.00 | 59 | 1010.6 |
| 20260503054539 | 54 | 146 | 0.0 | 8.0 | 0.00 | 0.00 | 0.00 | 47 | 1010.7 |
| 20260503053032 | 53 | 201 | 0.0 | 6.0 | 0.00 | 0.00 | 0.00 | 51 | 1010.7 |
| 20260503051530 | 53 | 290 | 0.0 | 4.0 | 0.00 | 0.00 | 0.00 | 48 | 1011.0 |
| 20260503050028 | 53 | 108 | 0.0 | 5.0 | 0.00 | 0.00 | 0.00 | 48 | 1011.3 |
| 20260503044538 | 53 | 212 | 0.0 | 5.0 | 0.00 | 0.00 | 0.00 | 46 | 1011.3 |
| 20260503043025 | 54 | 236 | 0.0 | 4.0 | 0.00 | 0.00 | 0.00 | 47 | 1011.3 |
| 20260503041524 | 54 | 155 | 0.0 | 5.0 | 0.00 | 0.00 | 0.00 | 47 | 1011.4 |
| 20260503040022 | 54 | 147 | 0.0 | 2.0 | 0.00 | 0.00 | 0.00 | 47 | 1011.7 |
| 20260503034522 | 54 | 232 | 0.0 | 3.0 | 0.00 | 0.00 | 0.00 | 47 | 1011.9 |
| 20260503033018 | 54 | 279 | 0.0 | 3.0 | 0.00 | 0.00 | 0.00 | 47 | 1012.0 |
| 20260503031517 | 54 | 121 | 0.0 | 6.0 | 0.00 | 0.00 | 0.00 | 48 | 1012.2 |
| 20260503030017 | 54 | 227 | 0.0 | 0.0 | 0.00 | 0.00 | 0.00 | 49 | 1012.4 |
| 20260503024513 | 54 | 229 | 0.0 | 0.0 | 0.00 | 0.00 | 0.00 | 49 | 1012.6 |
| 20260503023011 | 54 | 232 | 0.0 | 0.0 | 0.00 | 0.00 | 0.00 | 48 | 1012.7 |
| 20260503021511 | 54 | 234 | 0.0 | 0.0 | 0.00 | 0.00 | 0.00 | 48 | 1012.8 |
| 20260503020011 | 54 | 234 | 0.0 | 0.0 | 0.00 | 0.00 | 0.00 | 47 | 1012.9 |
| 20260503014513 | 55 | 234 | 0.0 | 0.0 | 0.00 | 0.00 | 0.00 | 48 | 1012.8 |
| 20260503013017 | 56 | 234 | 0.0 | 0.0 | 0.00 | 0.00 | 0.00 | 45 | 1012.8 |
| 20260503011508 | 58 | 234 | 0.0 | 0.0 | 0.00 | 0.00 | 0.00 | 41 | 1012.7 |
| 20260503010008 | 59 | 234 | 0.0 | 3.0 | 0.00 | 0.00 | 0.00 | 39 | 1012.8 |
| 20260503004508 | 60 | 238 | 0.0 | 4.0 | 0.00 | 0.00 | 0.00 | 36 | 1012.8 |
| 20260503003005 | 61 | 244 | 0.0 | 7.0 | 0.00 | 0.00 | 0.00 | 34 | 1012.9 |
| 20260503001504 | 62 | 244 | 0.0 | 5.0 | 0.00 | 0.00 | 0.00 | 33 | 1013.1 |
| 20260503000003 | 63 | 237 | 4.0 | 11.0 | 0.00 | 0.00 | 0.00 | 32 | 1013.3 |
| 20260502234502 | 64 | 223 | 2.0 | 12.0 | 0.00 | 0.00 | 0.00 | 30 | 1013.5 |
| 20260502233108 | 64 | 237 | 2.0 | 10.0 | 0.00 | 0.00 | 0.00 | 32 | 1013.5 |
| 20260502231618 | 64 | 257 | 2.0 | 8.0 | 0.00 | 0.00 | 0.00 | 30 | 1013.6 |
| 20260502230058 | 64 | 225 | 8.0 | 12.0 | 0.00 | 0.00 | 0.00 | 32 | 1013.9 |
| 20260502224600 | 64 | 238 | 1.0 | 9.0 | 0.00 | 0.00 | 0.00 | 34 | 1014.0 |
| 20260502223053 | 64 | 230 | 5.0 | 15.0 | 0.00 | 0.00 | 0.00 | 31 | 1014.2 |
| 20260502221554 | 64 | 240 | 4.0 | 12.0 | 0.00 | 0.00 | 0.00 | 34 | 1014.2 |